[[{"header":{"parameterUnit":"m.s-1","parameterCategory":1,"la1":30.2991,"la2":30.254,"lo1":-89.0895,"lo2":-89.0444,"dy":0.0017,"dx":0.0017,"nx":28,"ny":28,"refTime":"2023-11-01T09:00:00:Z","depth":0,"parameterNumber":2,"parameterNumberName":"U-component_of_WINDS"},"data":[0,0,0,0,0,0,0,0,0,0,0,0,0,0,0,0,0,0,0,0,0,0,0,0,0,0,0,0,0,0,0,0,0,0,0,0,0,0,0,0,0,0,0,0,0,0,0,0,0,0,0,0,0,0,0,0,0,0,-4.0004,-4.0004,0,-4.0039,-4.0039,-4.004,-3.9886,-3.9882,-3.9877,-3.9873,-3.9909,-3.9914,-3.9919,0,0,0,0,0,0,0,0,0,0,0,0,0,-3.9803,-3.9807,-4.0004,-4.0004,-4.0004,-4.0039,-4.0039,-4.004,-3.9887,-3.9881,-3.9876,-3.9871,-3.9908,-3.9914,-3.992,0,0,0,0,0,0,0,0,0,0,0,0,0,-3.9869,-3.9809,-4.0004,-3.9932,-3.9926,-4.0039,-4.0039,-4.004,-3.9888,-3.9881,-3.9875,-3.9868,-3.9906,-3.9913,-3.9921,-4.0103,0,0,-3.9944,-3.9948,0,0,0,0,0,0,0,0,-3.9866,-3.9877,-3.9942,-3.9937,-3.9931,-3.9951,-3.9981,-4.0061,-3.989,-3.9903,-3.9873,-3.9865,-3.9929,-3.9934,-3.9956,-4.0105,-4.0106,-3.9945,-3.995,-3.9953,-3.9955,0,0,0,0,0,0,0,-3.9861,-3.9874,-4.0017,-3.9944,-3.9937,-3.9898,-3.99,-3.9996,-3.9953,-3.9901,-3.989,-3.9896,-3.9924,-3.9949,-3.9955,-4.0107,-3.9945,-3.9952,-3.9957,-3.996,-4.0405,-4.0412,0,0,0,0,0,0,-3.9866,-3.9872,-4.0016,-4.0018,-3.9881,-3.9907,-3.991,-3.9952,-3.9952,-3.9945,-3.9902,-3.9889,-3.9939,-3.9946,-3.9956,-4.0168,-3.9953,-3.996,-3.9965,-4.0398,-4.0407,-4.0415,0,0,0,0,0,0,-3.9863,-3.9881,-4.0015,-3.9942,-3.9956,-3.9918,-3.9966,-3.9956,-3.998,-3.9952,-3.9944,-3.9935,-3.9934,-3.9945,-4.0067,-4.0167,-3.9964,-3.9971,-4.039,-4.0401,-4.0411,-4.0595,0,0,0,0,0,0,-3.9857,-3.988,-3.995,-3.9945,-3.9961,-4.0127,-3.9972,-3.9961,-3.9993,-3.9977,-3.9981,-3.9975,-3.9929,-4.0057,-4.0075,-4.0174,-3.9977,-4.0381,-4.0395,-4.0407,-4.058,-4.0611,-4.0638,0,0,0,0,0,-3.9851,-4.0001,-3.9954,-3.9972,-4.0047,-4.0133,-4.0142,-4.0086,-4.0002,-4.0071,-4.0053,-3.9975,-4.0153,-4.007,-4.009,-4.0193,-4.0374,-4.0391,-4.0406,-4.0567,-4.0605,-4.0637,0,0,0,0,0,0,-4.0019,-3.9999,-3.9947,-4.01,-4.0119,-4.0107,-4.0192,-4.0128,-4.0172,-4.0155,-4.0083,-4.0086,-4.022,-4.0218,-4.0126,-4.0368,-4.0249,-4.027,-4.0365,-4.04,-4.0429,-4.0426,-3.9983,0,0,0,0,0,-4.0074,-4.0146,-4.0124,-4.0261,-4.0273,-4.0232,-4.0267,-4.0222,-4.0239,-4.0247,-4.0238,-4.0257,-4.0317,-4.0359,-4.0413,-4.0579,-4.0577,-4.0659,-4.0688,-4.0712,-4.0731,-4.0817,-4.0853,-4.0468,-4.0468,-4.0468,0,0,-4.0188,-4.0186,-4.0236,-4.0295,-4.0304,-4.038,-4.024,-4.0326,-4.038,-4.026,-4.0374,-4.0368,-4.0385,-4.053,-4.0593,-4.0533,-4.0836,-4.0732,-4.0752,-4.0758,-4.0837,-4.0874,-4.0906,-4.0479,-4.0477,-4.0475,0,0,-4.0435,-4.0441,-4.0555,-4.0567,-4.0583,-4.0554,-4.0581,-4.0578,-4.057,-4.0683,-4.0594,-4.0658,-4.0763,-4.0779,-4.08,-4.1051,-4.0979,-4.107,-4.122,-4.1305,-4.1335,-4.1362,-4.145,-4.1483,-4.1089,-4.1089,-4.109,0,-4.0575,-4.0685,-4.0621,-4.0713,-4.0741,-4.0634,-4.0749,-4.0763,-4.0797,-4.0818,-4.075,-4.0879,-4.0883,-4.1029,-4.109,-4.1111,-4.114,-4.1069,-4.1336,-4.1362,-4.1386,-4.1469,-4.1503,-4.11,-4.1099,-4.1098,-4.1097,0,-4.0855,-4.0933,-4.1023,-4.1057,-4.1095,-4.1198,-4.1149,-4.1195,-4.1147,-4.1125,-4.1241,-4.1242,-4.1293,-4.1324,-4.1279,-4.1464,-4.1426,-4.1348,-4.1227,-4.1435,-4.1511,-4.1543,-4.1116,-4.1112,-4.1109,-4.1106,0,0,-4.121,-4.1206,-4.124,-4.1254,-4.1263,-4.1321,-4.1418,-4.1468,-4.1508,-4.1535,-4.1614,-4.1705,-4.1632,-4.1657,-4.1611,-4.1686,-4.1883,-4.1599,-4.1598,-4.1651,-4.2085,-4.2143,-4.2181,-4.1835,-4.1841,-4.1846,-4.2083,0,-4.1451,-4.1616,-4.1561,-4.173,-4.1799,-4.1698,-4.1783,-4.1797,-4.1779,-4.1835,-4.1814,-4.1879,-4.178,-4.1794,-4.1863,-4.1844,-4.1969,-4.1826,-4.1908,-4.1911,-4.1906,-4.2222,-4.2284,-4.2508,-4.2113,-4.2118,-4.2122,0,-4.1754,-4.1791,-4.1966,-4.1962,-4.1989,-4.2066,-4.2106,-4.2161,-4.2175,-4.2156,-4.2183,-4.2121,-4.2215,-4.2094,-4.2222,-4.2126,-4.2156,-4.2151,-4.2159,-4.2164,-4.2029,-4.2235,-4.2578,-4.2612,-4.2169,-4.2165,-4.2162,0,-4.1994,-4.2088,-4.2204,-4.2219,-4.2217,-4.2273,-4.2274,-4.2281,-4.2314,-4.2349,-4.2369,-4.2416,-4.2441,-4.2478,-4.2429,-4.2346,-4.2564,-4.2439,-4.255,-4.2552,-4.2601,-4.2599,-4.2954,-4.2622,-4.2621,-4.2621,-4.262,0,-4.2268,-4.2379,-4.2311,-4.2383,-4.2504,-4.2439,-4.256,-4.255,-4.2557,-4.2624,-4.254,-4.2605,-4.2537,-4.2596,-4.2559,-4.2669,-4.2682,-4.2668,-4.2657,-4.2676,-4.2678,-4.2694,-4.2677,-4.2629,-4.2628,-4.2626,-4.2624,0,-4.2557,-4.2516,-4.2636,-4.2624,-4.2623,-4.2712,-4.2701,-4.2766,-4.2741,-4.2827,-4.2844,-4.2805,-4.2869,-4.2824,-4.2889,-4.2864,-4.3009,-4.2976,-4.3005,-4.2995,-4.3109,-4.3099,-4.3487,-4.3534,-4.3173,-4.3177,-4.3179,0,-4.2734,-4.2817,-4.2813,-4.2852,-4.2859,-4.2923,-4.2955,-4.2894,-4.2932,-4.2952,-4.3015,-4.3072,-4.3114,-4.3221,-4.3198,-4.3247,-4.3214,-4.3347,-4.3221,-4.3236,-4.3215,-4.321,-4.3217,-4.3372,-4.3376,-4.338,-4.3383,0,-4.3053,-4.3029,-4.3079,-4.3123,-4.3164,-4.3195,-4.3219,-4.3256,-4.3194,-4.324,-4.3305,-4.3337,-4.3402,-4.3459,-4.3499,-4.3499,-4.3432,-4.3422,-4.345,-4.347,-4.3483,-4.3476,-4.3073,-4.3414,-4.3411,-4.3408,-4.3407,-4.3405,-4.3291,-4.3359,-4.3366,-4.3425,-4.3436,-4.3461,-4.3521,-4.3503,-4.3555,-4.3603,-4.3564,-4.364,-4.365,-4.3696,-4.3705,-4.3764,-4.3709,-4.375,-4.3761,-4.3772,-4.3787,-4.3474,-4.3771,-4.377,-4.3769,-4.3768,-4.3767,0,-4.3604,-4.3603,-4.3658,-4.3694,-4.374,-4.3671,-4.3694,-4.3737,-4.3805,-4.382,-4.3862,-4.3936,-4.399,-4.3971,-4.4019,-4.407,-4.404,-4.4085,-4.408,-4.4081,-4.3834,-4.3804,-4.4108,-4.4108,-4.4108,-4.4108,-4.4108,-4.4108,-4.3773,-4.3883,-4.386,-4.3975,-4.3973,-4.4047,-4.4066,-4.4088,-4.4099,-4.4184,-4.4229,-4.4216,-4.4217,-4.4264,-4.4311,-4.4303,-4.4325,-4.4381,-4.4363,-4.4132,-4.4099,-4.4066,-4.4038,-4.4387,-4.4387,-4.4605,-4.4607,-4.4608]},{"header":{"parameterUnit":"m.s-1","parameterCategory":1,"la1":30.2991,"la2":30.254,"lo1":-89.0895,"lo2":-89.0444,"dy":0.0017,"dx":0.0017,"nx":28,"ny":28,"refTime":"2023-11-01T09:00:00:Z","depth":0,"parameterNumber":3,"parameterNumberName":"V-component_of_WINDS"},"data":[0,0,0,0,0,0,0,0,0,0,0,0,0,0,0,0,0,0,0,0,0,0,0,0,0,0,0,0,0,0,0,0,0,0,0,0,0,0,0,0,0,0,0,0,0,0,0,0,0,0,0,0,0,0,0,0,0,0,-6.564,-6.5641,0,-6.5724,-6.5725,-6.5726,-6.5617,-6.5614,-6.561,-6.5606,-6.5686,-6.5692,-6.5697,0,0,0,0,0,0,0,0,0,0,0,0,0,-6.538,-6.5385,-6.564,-6.5641,-6.5642,-6.5724,-6.5725,-6.5726,-6.5618,-6.5613,-6.5609,-6.5604,-6.5684,-6.5691,-6.5698,0,0,0,0,0,0,0,0,0,0,0,0,0,-6.5481,-6.5387,-6.564,-6.5599,-6.5596,-6.5723,-6.5725,-6.5726,-6.5619,-6.5613,-6.5607,-6.5602,-6.5682,-6.569,-6.5699,-6.587,0,0,-6.5725,-6.5729,0,0,0,0,0,0,0,0,-6.5476,-6.5491,-6.5604,-6.5602,-6.5599,-6.5654,-6.5662,-6.5774,-6.5621,-6.561,-6.5606,-6.5599,-6.568,-6.5688,-6.5717,-6.5873,-6.5877,-6.5726,-6.5731,-6.5735,-6.5737,0,0,0,0,0,0,0,-6.5469,-6.5487,-6.5673,-6.5605,-6.5602,-6.5573,-6.5581,-6.5683,-6.5677,-6.5611,-6.5603,-6.5615,-6.5677,-6.5709,-6.5718,-6.5878,-6.5726,-6.5733,-6.5739,-6.5742,-6.6175,-6.6181,0,0,0,0,0,0,-6.5468,-6.5482,-6.567,-6.5676,-6.5522,-6.5583,-6.5591,-6.5642,-6.5675,-6.5675,-6.5619,-6.5609,-6.5697,-6.5708,-6.572,-6.5919,-6.5735,-6.5743,-6.5748,-6.6168,-6.6176,-6.6183,0,0,0,0,0,0,-6.5462,-6.5486,-6.5667,-6.5577,-6.5597,-6.5593,-6.5651,-6.5647,-6.5678,-6.5682,-6.568,-6.5653,-6.5692,-6.5708,-6.5833,-6.5921,-6.5747,-6.5755,-6.6161,-6.6171,-6.6179,-6.6322,0,0,0,0,0,0,-6.5455,-6.5484,-6.5551,-6.5579,-6.5603,-6.5781,-6.5657,-6.5653,-6.5694,-6.5681,-6.5713,-6.5712,-6.5689,-6.582,-6.5841,-6.593,-6.5761,-6.6153,-6.6165,-6.6176,-6.6309,-6.6335,-6.6357,0,0,0,0,0,-6.5447,-6.5588,-6.5555,-6.5579,-6.5687,-6.5786,-6.58,-6.5771,-6.5702,-6.5767,-6.5769,-6.5711,-6.5908,-6.5834,-6.5857,-6.5949,-6.6147,-6.6162,-6.6175,-6.6298,-6.633,-6.6356,0,0,0,0,0,0,-6.5569,-6.5591,-6.5555,-6.571,-6.5747,-6.5768,-6.585,-6.5806,-6.5863,-6.5849,-6.5809,-6.5817,-6.595,-6.5962,-6.5879,-6.6114,-6.6016,-6.6035,-6.6101,-6.6131,-6.6155,-6.6148,-6.5769,0,0,0,0,0,-6.5614,-6.5696,-6.5709,-6.5844,-6.5865,-6.5855,-6.5897,-6.5872,-6.5908,-6.5923,-6.5934,-6.597,-6.6039,-6.6086,-6.6151,-6.6311,-6.6314,-6.6385,-6.6409,-6.6428,-6.6445,-6.6527,-6.6558,-6.6229,-6.6229,-6.6229,0,0,-6.5708,-6.573,-6.5784,-6.5869,-6.5895,-6.5978,-6.5869,-6.5961,-6.6021,-6.5937,-6.6055,-6.6065,-6.6102,-6.6244,-6.6307,-6.6258,-6.6537,-6.6446,-6.6462,-6.6468,-6.6545,-6.6576,-6.6603,-6.6239,-6.6237,-6.6236,0,0,-6.5921,-6.5947,-6.6061,-6.6089,-6.613,-6.6122,-6.615,-6.6177,-6.618,-6.6299,-6.6236,-6.6306,-6.6427,-6.6455,-6.6486,-6.6707,-6.6654,-6.6729,-6.6853,-6.6933,-6.6959,-6.6982,-6.7058,-6.7086,-6.6745,-6.6746,-6.6746,0,-6.6031,-6.6156,-6.6125,-6.6221,-6.6259,-6.6188,-6.6301,-6.6329,-6.6389,-6.6415,-6.636,-6.6509,-6.6529,-6.6676,-6.6729,-6.6757,-6.6785,-6.6724,-6.6958,-6.6981,-6.7001,-6.7073,-6.7103,-6.6754,-6.6753,-6.6753,-6.6752,0,-6.6288,-6.6375,-6.6462,-6.6522,-6.657,-6.6674,-6.6656,-6.6708,-6.6678,-6.6675,-6.6794,-6.6816,-6.6882,-6.6915,-6.6887,-6.7057,-6.7025,-6.6965,-6.6865,-6.7042,-6.7109,-6.7136,-6.6767,-6.6764,-6.6761,-6.6759,0,0,-6.6581,-6.6622,-6.6654,-6.6679,-6.6718,-6.6783,-6.6883,-6.6949,-6.6993,-6.7036,-6.7116,-6.722,-6.7163,-6.7198,-6.7172,-6.7243,-6.7413,-6.7173,-6.7173,-6.7215,-6.7598,-6.7641,-6.7674,-6.7379,-6.7384,-6.7388,-6.7594,0,-6.6791,-6.6966,-6.694,-6.7107,-6.7185,-6.7117,-6.7203,-6.7235,-6.7234,-6.7298,-6.7296,-6.7369,-6.7291,-6.7311,-6.7378,-6.7378,-6.7489,-6.7363,-6.745,-6.7454,-6.7442,-6.771,-6.7757,-6.795,-6.762,-6.7624,-6.7628,0,-6.7061,-6.7115,-6.729,-6.7315,-6.7346,-6.7425,-6.7481,-6.7544,-6.7577,-6.7571,-6.761,-6.757,-6.7666,-6.7566,-6.7696,-6.7611,-6.7645,-6.765,-6.7657,-6.7662,-6.7551,-6.772,-6.8011,-6.8039,-6.7669,-6.7666,-6.7663,0,-6.7254,-6.7369,-6.7488,-6.7512,-6.7545,-6.7601,-6.7617,-6.7645,-6.7685,-6.7734,-6.7759,-6.7818,-6.785,-6.7896,-6.7872,-6.7802,-6.8005,-6.7904,-6.8,-6.8001,-6.8045,-6.8043,-6.8343,-6.8071,-6.8071,-6.807,-6.807,0,-6.7491,-6.76,-6.7575,-6.7648,-6.7767,-6.7735,-6.7853,-6.786,-6.7885,-6.7956,-6.7901,-6.7968,-6.7933,-6.7997,-6.7979,-6.8088,-6.8103,-6.8099,-6.8093,-6.8103,-6.8103,-6.8124,-6.8109,-6.8078,-6.8076,-6.8075,-6.8073,0,-6.7725,-6.7714,-6.7839,-6.7859,-6.7866,-6.7953,-6.7969,-6.8036,-6.803,-6.8121,-6.814,-6.8131,-6.8203,-6.8184,-6.8263,-6.825,-6.8387,-6.8364,-6.8376,-6.837,-6.8467,-6.8457,-6.8789,-6.883,-6.8534,-6.8537,-6.8539,0,-6.7877,-6.7959,-6.7988,-6.8032,-6.8053,-6.8125,-6.8166,-6.8136,-6.818,-6.8223,-6.8284,-6.8352,-6.8404,-6.8522,-6.8521,-6.858,-6.8557,-6.8669,-6.8565,-6.8572,-6.8555,-6.855,-6.8557,-6.869,-6.8693,-6.8696,-6.8698,0,-6.8145,-6.8135,-6.8197,-6.8257,-6.8307,-6.8353,-6.8392,-6.8431,-6.8404,-6.8456,-6.853,-6.8571,-6.865,-6.8717,-6.8771,-6.8783,-6.8736,-6.8731,-6.8756,-6.8767,-6.8769,-6.8766,-6.843,-6.8723,-6.8721,-6.8719,-6.8717,-6.8716,-6.8341,-6.841,-6.8441,-6.8511,-6.8538,-6.8576,-6.8639,-6.8641,-6.8703,-6.8766,-6.8744,-6.8828,-6.8856,-6.8923,-6.8943,-6.9006,-6.8963,-6.9,-6.9009,-6.9018,-6.9029,-6.8761,-6.9016,-6.9015,-6.9015,-6.9014,-6.9013,0,-6.8604,-6.862,-6.8685,-6.8743,-6.8797,-6.8749,-6.879,-6.8838,-6.8913,-6.8944,-6.8997,-6.908,-6.9144,-6.9148,-6.9207,-6.9256,-6.9235,-6.9272,-6.9267,-6.9271,-6.9065,-6.9037,-6.9288,-6.9288,-6.9288,-6.9288,-6.9288,-6.9288,-6.8747,-6.8861,-6.8854,-6.8978,-6.8993,-6.9076,-6.9103,-6.9136,-6.9161,-6.9257,-6.931,-6.9312,-6.9331,-6.9391,-6.9447,-6.9446,-6.9469,-6.9514,-6.9505,-6.9313,-6.9285,-6.9259,-6.9232,-6.952,-6.952,-6.9704,-6.9706,-6.9707]}]]